Volver al catálogo

SL-8 DEB

ActivoLEO
NORAD 21420·DEBRIS·🇷🇺 Russia

Lanzado Jun 11, 1991 desde Plesetsk Cosmodrome

Loading…

Próximos Pases (próximas 24 horas)

TLE

ActualizadoSource: Space-Track

Época: Sep 14, 2026, 13:06 UTC

1 21420U 91041C   26257.54610931  .00000723  00000-0  20326-3 0  9993
2 21420  74.0649 156.5646 0003147  73.5993 346.9900 14.47643394848528

Sigue SL-8 DEB en tiempo real con AllMySat

Download on the App Store